{"data":{"norad_id":64710,"epoch":"2026-05-25T05:18:38.579040Z","epoch_age_seconds":59155,"freshness":"FRESH","line1":"1 64710U 25142Q   26145.22127985  .00001571  00000+0  13936-3 0  9994","line2":"2 64710  70.0001 121.4892 0003993 264.4113  95.6591 14.98342148 51117","mean_motion":14.98342148,"eccentricity":0.0003993,"inclination_deg":70.0001,"raan_deg":121.4892,"arg_perigee_deg":264.4113,"mean_anomaly_deg":95.6591,"bstar":0.00013936,"rev_number":5111,"period_min":96.106219925944,"perigee_km":569.24312748925,"apogee_km":574.7935215314,"semimajor_km":6950.1553245103,"source":"CELESTRAK","updated_at":"2026-05-25T13:38:20.514589Z"}}